Theta_e
323 323 323 323 322 322 323 323 322 321 320 320 321 321 322 321 320 312 307 315 317 325 323 316 313 313 313 309 304 303 292 289 292 297 299 306 304 312 318 318 320 320 320 329 335
322 323 323 322 322 322 323 323 322 322 320 320 320 320 321 322 311 307 318 323 323 322 315 310 307 310 306 305 305 298 290 292 297 298 301 305 305 311 316 314 314 323 330 334 336
322 322 322 322 322 322 322 322 322 321 320 320 321 322 323 316 304 304 322 323 322 318 315 314 311 307 304 304 301 298 292 298 300 302 302 305 306 308 313 310 316 320 328 332 331
321 322 322 322 322 321 322 322 322 322 322 321 322 323 322 307 288 306 321 322 322 318 313 309 308 302 298 297 301 295 300 301 301 303 302 300 304 305 310 311 314 325 330 331 329
319 321 321 321 321 321 321 321 321 322 323 322 322 322 309 300 299 314 319 317 316 315 309 306 301 302 297 298 298 295 298 301 302 302 299 302 299 302 307 311 326 329 330 328 327
318 319 320 320 320 320 320 320 321 321 323 322 322 319 306 297 313 316 315 313 311 310 306 307 305 305 299 299 296 298 298 299 299 300 300 298 297 303 306 317 326 328 326 327 325
318 318 318 319 319 319 320 319 320 320 320 320 321 310 304 301 313 316 315 312 312 308 304 307 307 304 301 297 302 299 295 295 298 299 298 300 296 298 307 322 323 324 325 327 323
317 316 317 318 318 318 318 319 319 320 320 320 320 305 297 311 313 312 314 312 312 311 309 310 307 305 300 301 300 295 293 288 294 298 299 298 290 300 315 319 317 321 322 324 323
317 316 317 317 317 317 317 318 320 320 319 319 305 301 297 315 307 312 312 308 309 310 311 312 306 300 300 295 293 295 282 285 289 296 296 297 293 299 315 316 315 316 320 323 324
315 316 316 317 317 317 317 318 317 314 311 311 305 295 300 300 306 312 314 311 307 306 304 302 298 292 293 290 283 287 283 284 285 291 293 292 293 300 308 313 315 316 318 318 322
316 315 316 316 316 316 311 300 296 295 298 296 296 297 300 305 310 307 311 308 307 304 295 297 292 287 289 292 293 292 286 286 288 292 292 291 293 298 305 305 307 314 314 319 319
314 315 316 316 315 315 304 297 297 298 290 298 299 300 302 304 298 302 310 302 300 293 297 292 288 294 296 297 293 290 285 285 288 292 292 290 290 293 301 302 304 307 309 314 315
314 315 316 315 315 304 299 299 304 302 291 294 297 296 297 300 295 296 305 301 297 293 293 290 293 299 295 293 291 286 284 283 286 289 290 291 289 290 292 295 302 307 308 310 315
314 315 315 315 303 300 297 302 303 300 282 286 291 295 297 298 291 300 305 296 293 289 290 290 292 292 292 292 291 285 287 289 288 286 282 287 280 286 288 290 292 298 301 305 310
315 314 314 310 298 297 301 303 302 294 270 287 291 300 297 292 293 294 299 294 289 288 288 285 288 289 289 289 290 287 289 289 288 284 282 284 281 286 286 289 290 290 295 301 306
315 314 313 302 300 299 302 300 296 281 270 283 291 291 290 291 292 294 293 295 292 288 287 287 292 290 290 292 291 292 288 290 287 285 280 279 280 282 284 287 288 290 290 294 299
314 314 308 304 298 302 302 296 281 274 284 284 286 289 287 287 289 290 288 286 284 280 281 284 285 288 291 288 289 289 287 278 280 275 276 280 279 286 288 289 290 290 291 293 296
313 310 306 304 303 301 297 289 274 281 283 288 287 287 284 286 286 287 285 283 286 284 280 278 278 286 290 286 283 284 284 279 277 273 275 280 278 283 290 291 291 292 291 294 295
310 302 301 301 303 299 292 277 280 282 286 286 286 282 282 285 284 284 282 283 285 285 280 279 278 287 290 289 288 284 280 284 279 275 275 276 281 287 289 291 291 291 292 293 294
298 298 299 302 300 294 286 284 284 288 288 287 281 282 279 280 282 282 281 285 286 288 287 283 278 285 288 289 288 284 286 280 279 275 273 274 276 276 281 287 291 290 291 292 294
299 296 300 302 297 289 281 282 286 291 290 286 283 282 281 281 281 280 281 285 288 289 288 285 283 282 286 284 282 285 282 282 281 279 275 272 277 284 284 288 288 290 291 292 293
294 288 299 299 290 283 282 285 292 288 290 289 287 285 282 282 280 280 281 284 289 289 283 285 284 279 282 286 288 285 283 282 277 277 276 277 276 286 285 286 289 290 292 293 294
291 291 300 298 286 283 284 287 289 288 288 288 287 288 286 283 282 283 285 289 291 287 283 285 280 276 279 283 285 283 284 284 283 281 278 277 279 285 285 285 286 287 288 291 292
292 288 292 292 289 285 284 285 286 290 290 290 288 288 286 284 285 283 284 289 291 289 296 289 280 279 276 278 281 280 283 283 282 278 277 278 279 281 283 285 285 285 286 286 287
292 289 289 284 288 285 286 287 286 285 289 289 286 288 286 282 282 283 284 285 289 292 287 285 279 276 279 281 281 281 281 282 279 278 277 278 281 282 283 284 285 285 287 287 288
292 289 289 287 289 287 288 287 287 287 288 287 286 288 286 284 284 283 285 284 284 285 284 284 280 280 278 281 281 281 281 281 281 281 280 279 279 283 283 285 285 285 287 287 287
295 294 291 290 286 286 287 288 288 290 290 289 289 287 285 287 288 286 287 286 285 283 284 283 281 278 276 279 280 278 279 281 281 281 282 279 282 284 283 285 284 286 287 287 288
Wind_Speed
12 12 13 13 14 13 13 12 11 9 7 7 9 11 12 12 10 1 2 5 5 10 7 3 4 1 2 3 3 4 3 3 3 6 3 2 3 3 2 6 2 1 2 3 16
12 12 13 13 14 14 13 11 11 10 9 10 10 10 10 9 2 3 7 9 6 6 3 4 3 2 2 2 3 4 4 6 3 2 3 2 2 6 5 4 1 3 4 14 16
13 13 13 14 14 13 12 11 10 10 9 8 9 10 9 5 3 2 11 10 6 4 4 2 4 2 4 4 3 5 5 4 2 2 5 2 1 4 5 3 5 7 14 16 15
14 13 13 14 14 14 13 11 9 9 8 9 9 9 8 2 4 1 10 11 6 4 3 4 4 1 4 6 5 4 5 3 1 4 5 4 6 4 1 3 3 9 17 18 15
14 14 14 14 14 15 14 12 11 9 8 7 9 10 4 4 4 2 7 7 4 3 4 3 3 3 4 5 4 3 5 8 1 6 4 4 3 4 5 3 5 15 16 18 13
12 14 14 14 14 15 16 15 13 11 9 8 6 6 1 6 1 2 4 4 3 2 1 4 6 3 3 3 5 7 2 6 2 4 5 4 3 3 5 1 9 15 17 11 8
13 13 14 14 14 14 16 17 16 13 10 8 3 2 2 5 2 2 3 1 3 2 2 1 2 2 3 3 3 4 6 1 5 3 4 2 2 5 2 4 11 14 11 10 6
14 13 13 13 14 14 16 18 17 14 11 6 2 1 4 1 3 4 2 1 3 2 2 2 2 4 2 1 2 2 5 3 5 8 6 3 7 6 5 8 9 10 10 10 6
16 14 14 14 14 15 16 19 14 5 3 3 2 3 6 2 2 3 4 2 1 2 3 1 2 2 3 2 3 1 3 4 7 9 6 5 5 4 8 5 7 8 8 9 6
17 16 15 14 14 15 18 13 6 3 4 2 1 3 2 4 2 4 1 3 2 1 3 3 4 2 2 2 4 4 2 3 3 5 5 4 7 2 5 7 8 9 5 6 7
18 16 15 14 13 13 9 4 7 5 4 2 6 3 4 2 4 3 1 4 5 1 2 1 2 4 5 4 2 3 2 5 4 2 5 7 5 3 3 4 6 6 6 8 5
20 17 15 13 13 10 2 5 2 3 6 1 4 4 4 4 1 2 5 1 3 5 6 5 4 6 4 5 4 5 2 4 1 1 4 3 3 1 3 4 4 4 4 7 6
20 18 15 14 12 4 3 3 1 2 3 7 3 4 4 4 2 6 9 3 3 8 7 3 3 6 2 4 5 2 3 3 5 3 4 4 2 2 2 3 4 7 7 4 7
20 18 15 15 3 1 2 1 2 1 6 8 4 2 1 1 1 3 9 5 3 4 5 3 3 5 4 4 3 3 5 4 3 4 4 2 3 4 3 3 3 4 2 4 5
18 16 14 9 1 2 1 1 1 4 6 6 9 1 5 3 3 1 2 2 3 3 3 2 2 5 3 5 6 7 2 5 4 5 4 6 6 6 2 5 4 4 5 5 5
19 15 10 3 2 2 2 3 3 9 4 6 4 7 5 3 4 5 3 5 1 3 2 1 2 2 2 2 3 2 2 6 4 3 4 1 5 5 3 3 2 3 4 6 5
20 12 3 2 1 2 2 4 8 7 2 5 4 5 3 4 5 5 4 7 4 6 6 2 2 1 1 1 2 2 4 4 4 6 5 4 3 5 3 3 3 5 6 6 8
20 4 3 1 1 2 3 6 6 3 4 2 2 3 3 5 2 7 3 6 4 4 3 4 7 4 4 2 1 3 3 6 3 4 4 2 4 6 4 3 4 6 5 6 7
13 2 1 2 1 2 6 5 6 5 1 4 2 4 4 4 3 3 3 1 2 1 3 3 3 2 3 3 2 2 1 3 8 3 4 3 5 7 6 4 4 6 7 6 5
3 3 1 3 2 5 6 5 3 3 1 1 1 1 1 3 4 5 4 1 3 1 2 1 3 1 2 1 2 2 3 4 4 4 3 5 4 6 5 4 3 4 6 4 4
3 3 2 2 2 6 3 5 4 5 3 2 2 2 2 1 2 1 2 1 1 4 0 1 3 5 3 4 2 5 3 5 3 3 5 3 7 5 4 4 3 4 3 1 2
3 3 2 2 4 1 2 3 2 3 1 3 2 3 4 3 1 1 2 4 3 1 0 1 2 2 1 1 3 1 1 2 5 3 1 3 6 3 1 1 3 6 5 4 4
3 4 2 3 1 2 3 2 2 4 4 4 5 5 3 3 1 2 2 1 1 2 2 1 2 2 6 3 1 1 2 3 3 3 3 3 5 2 4 6 6 7 7 6 7
3 4 3 3 1 4 3 4 3 3 3 3 3 3 3 3 3 3 2 2 1 1 3 2 2 4 6 2 1 2 3 1 2 2 4 5 4 1 4 7 6 8 8 8 8
1 5 2 3 4 4 4 3 4 4 4 3 2 6 6 5 3 4 2 1 1 3 2 2 2 2 4 4 2 3 4 4 4 3 3 2 7 5 5 7 6 6 7 9 8
3 1 2 3 1 5 5 5 8 4 9 5 5 5 6 5 7 6 5 4 3 1 2 1 2 3 2 2 0 4 5 5 4 3 2 5 2 3 4 6 7 7 8 8 6
2 2 3 3 2 4 6 8 8 6 6 5 8 5 4 7 4 3 4 3 2 2 1 1 2 3 4 4 7 7 5 6 4 3 6 5 6 6 4 7 6 6 7 7 6
Wind_Direction
338 337 335 338 341 343 345 344 344 343 332 329 335 339 337 336 330 19 25 278 281 339 36 115 52 93 107 152 136 132 73 186 201 182 216 325 156 330 88 117 96 71 192 174 142
337 336 336 338 344 347 343 341 338 337 337 334 335 336 332 337 330 8 316 341 357 5 63 160 155 199 160 201 186 122 139 209 217 280 252 298 276 168 135 128 91 114 74 127 147
339 337 338 340 343 340 338 337 334 337 338 338 338 334 321 329 356 357 336 360 1 103 80 89 106 153 192 194 181 178 171 215 310 291 1 340 278 314 141 239 199 176 149 148 161
336 335 336 339 335 335 333 333 323 323 322 329 332 328 328 358 346 313 342 342 3 124 80 95 99 191 176 187 208 140 224 226 334 12 342 328 311 299 168 203 289 154 158 157 162
329 330 333 333 332 329 326 325 320 308 301 306 323 352 356 6 290 30 4 346 45 18 120 106 109 216 194 174 132 150 193 252 313 320 328 284 301 247 235 282 143 136 161 168 160
330 327 329 328 327 323 320 322 315 306 299 298 319 334 36 327 350 87 12 6 40 58 90 139 202 209 134 204 170 181 158 264 79 331 306 284 293 146 233 201 135 150 168 162 158
331 329 325 326 322 318 315 313 306 298 290 289 298 107 96 254 26 53 39 314 348 115 146 237 258 147 141 147 271 164 174 326 274 145 288 285 298 220 193 181 149 170 166 153 158
334 330 324 322 318 315 311 303 296 295 287 272 170 101 241 126 112 47 10 110 18 10 91 286 234 120 60 341 246 101 84 145 274 150 269 160 274 243 164 160 159 154 166 175 185
340 334 329 322 318 316 311 304 297 295 241 127 105 116 296 146 39 72 21 33 44 10 10 162 353 67 27 148 106 285 173 186 304 184 189 176 259 213 173 159 160 163 157 164 161
343 337 332 325 322 321 316 301 284 96 74 118 90 47 320 332 133 93 20 10 91 160 50 37 26 80 93 83 191 166 230 233 228 202 148 196 268 236 168 163 175 173 177 155 149
346 336 331 326 324 328 340 14 16 345 37 191 256 229 289 49 97 47 106 9 2 36 80 86 238 222 220 196 264 166 205 147 245 222 131 202 230 235 152 115 160 164 199 189 152
345 337 331 327 327 327 48 94 165 181 317 276 247 273 251 187 132 147 148 19 52 67 21 15 290 264 204 220 202 196 207 212 246 157 132 164 85 109 166 209 187 201 232 206 160
346 336 332 326 320 36 61 141 279 178 83 302 258 248 248 157 257 196 162 216 204 154 169 189 274 139 302 253 177 143 197 227 166 129 55 118 22 77 27 143 203 204 194 171 159
345 339 335 323 59 282 37 309 315 303 67 295 332 330 24 162 317 150 201 200 248 228 184 173 156 201 258 28 23 343 202 215 208 105 142 7 238 286 182 205 212 225 104 119 124
340 340 341 19 202 64 232 30 44 51 44 281 299 289 311 70 282 206 187 173 293 318 140 254 92 128 148 198 156 244 198 165 110 105 95 350 73 249 21 244 245 231 203 201 191
338 333 341 357 36 350 23 60 48 43 274 330 299 352 14 14 357 315 29 30 183 273 3 108 117 118 211 275 228 135 113 61 57 83 34 316 130 285 174 241 295 244 194 185 172
337 328 355 109 293 354 28 41 37 104 295 294 317 16 305 319 355 23 20 15 46 26 4 6 157 128 68 176 201 191 55 41 8 8 212 314 61 233 295 291 260 272 208 149 147
334 336 358 44 356 77 47 46 73 233 247 300 310 315 21 351 10 0 48 20 19 58 24 31 340 2 346 49 241 78 134 148 122 187 242 316 234 243 227 295 283 257 211 149 136
333 331 46 336 61 57 69 49 209 199 198 302 309 65 331 352 3 41 27 254 233 9 105 21 300 346 40 349 30 220 24 133 102 4 70 248 292 324 349 34 46 91 124 147 147
353 345 344 315 84 69 74 241 208 200 190 75 286 186 299 306 31 21 6 311 341 200 192 208 338 11 268 172 43 45 148 58 1 129 234 308 289 237 325 332 18 83 86 85 98
12 10 305 6 52 58 163 232 243 227 159 184 233 260 247 264 137 320 301 282 313 325 275 293 136 299 10 29 67 360 19 48 119 132 156 158 259 206 233 286 273 86 98 116 108
352 342 311 342 46 62 177 208 228 217 181 214 202 230 227 231 299 278 236 208 198 140 190 293 151 279 66 110 173 182 218 153 118 241 123 150 272 9 81 32 135 105 101 116 143
331 265 317 96 213 277 263 271 239 192 224 195 209 200 189 231 258 242 256 166 111 148 161 177 336 25 351 3 23 241 175 135 101 54 199 145 241 85 73 65 56 88 64 63 66
330 324 322 46 124 161 207 224 233 222 260 199 222 138 163 233 230 249 258 280 213 209 153 111 124 170 193 223 137 233 194 190 164 130 183 214 163 147 75 90 65 65 74 73 69
202 253 205 257 254 176 161 186 191 218 218 211 244 228 181 193 208 222 231 287 249 339 77 104 229 127 258 255 251 249 219 193 187 183 169 217 169 197 165 135 99 82 74 72 64
244 226 348 281 228 161 178 222 209 207 156 229 217 206 195 206 191 198 175 201 194 66 120 340 230 191 252 155 27 256 218 192 210 198 151 136 206 138 98 94 80 97 101 96 94
271 285 124 252 232 140 213 206 215 166 217 183 189 149 211 233 193 101 93 91 117 157 147 83 122 58 282 332 319 303 219 184 168 180 149 166 219 151 117 124 138 134 133 139 140